www.pogodaiklimat.ru

Погода и климат >> Архив погоды >> Китай >> Ejin Qi


ПОГОДА в Ejin Qi

  • Прогноз погоды в Ejin Qi
  • Монитор погоды в Ejin Qi
  • Климат города

АРХИВ ПОГОДЫ в Ejin Qi

Время (UTC), дата Ветер
(напр.,м/с)
 
Видим.   Явления Облачность Т
(С)
Тd
(С)
f
(%)
Тe
(С)
Тes
(С)
Комфортность P
(гПа)
Po
(гПа)
Тmin
(С)
Tmax
(С)
R
(мм)
R24
(мм)
S
(см)
18 13.05 С 3 30 км ?/? +25.4 -0.6 18 +24 +24 комфорт 988.2 889.6 +37.7
21 13.05 СЗ 3 7000 м н/о +21.3 +2.6 29 +21 +21 комфорт 988.8 989.0
00 14.05 СЗ 4 30 км 9/9
[]
+21.8 +3.9 31 +22 +22 комфорт 991.2 891.4
03 14.05 С 5 18 км 9/9
[]
+29.3 +1.7 17 +27 +28 жарко 991.6 858.0
06 14.05 С 4 30 км 1/1
[]
+33.6 +0.3 12 +30 +41 жарко 989.0 890.0 +20.2
09 14.05 СЗ 4 29 км 9/9
[]
+33.8 -0.7 11 +30 +31 жарко 988.0 988.0
12 14.05 С 4 30 км 9/9 1500 м
[]
+30.4 -2.2 12 +27 +27 жарко 989.1 889.0
15 14.05 СЗ 4 30 км н/о +26.6 -0.4 17 +25 +25 комфорт 991.3 991.0
18 14.05 СЗ 5 30 км ?/? +23.8 +1.4 23 +23 +23 комфорт 991.8 892.2 +34.5
21 14.05 З 4 30 км ?/? +21.6 -1.6 21 +21 +21 комфорт 993.3 993.0
00 15.05 С 6 15 км слабый ливневой дождь 9/9 1500 м
[]
+18.7 +1.2 31 +18 +18 994.4 893.3 0.0
03 15.05 З 6 15 км {ливн. осадки} 9/9
[]
+22.3 -1.7 20 +21 +22 комфорт 997.1 997.0
06 15.05 СЗ 5 16 км {ливн. осадки} 10/10 1500 м
[]
+22.6 -2.9 18 +21 +21 комфорт 998.9 896.9 +18.2 0.0
09 15.05 З 4 17 км 9/9
[]
+25.3 -4.1 14 +23 +24 комфорт 998.5 999.0
12 15.05 З 2 24 км 9/9 1500 м
[]
+24.4 -8.0 11 +22 +22 комфорт 1000.2 897.5
15 15.05 З 3 30 км н/о +21.8 -2.1 20 +21 +21 комфорт 1002.6 864.2
18 15.05 ЮЗ 1 30 км н/о +20.6 -0.1 25 +22 +22 комфорт 1002.1 899.2 +26.3
21 15.05 ЮЗ 2 30 км ?/? +17.8 +0.9 32 +18 +18 1002.1 1002.0
00 16.05 З 3 30 км 9/9 1500 м
[]
+17.4 -11.3 13 +17 +18 1004.0 900.7
03 16.05 СЗ 3 30 км 9/9 1500 м
[]
+22.3 -19.2 5 +20 +21 1004.9 866.9
06 16.05 СЗ 4 30 км 9/9 1500 м
[]
+25.2 -14.9 6 +22 +23 комфорт 1004.2 901.5 +16.5
09 16.05 С 3 30 км 9/9 1500 м
[]
+22.6 -2.9 18 +21 +22 комфорт 1005.4 1005.0
12 16.05 С 4 30 км ясно +20.5 +1.4 28 +21 +21 комфорт 1006.8 902.6
15 16.05 З 2 30 км н/о +16.3 +0.8 35 +17 +17 1007.8 1008.0
18 16.05 З 2 30 км н/о +13.0 +0.4 42 +13 +13 1007.8 1043.4 +25.8
21 16.05 С 1 30 км н/о +9.7 -1.7 45 +10 +10 1009.3 1009.0
00 17.05 З 2 30 км 1/1
[]
+13.6 -4.6 28 +13 +16 1010.7 905.4
03 17.05 З 3 30 км 3/3
[]
+22.4 -9.5 11 +20 +29 1009.9 870.1
06 17.05 З 4 30 км 9/9
[]
+25.1 -13.1 7 +22 +23 комфорт 1008.3 903.9 +9.5
09 17.05 З 2 30 км 9/9 1500 м
[]
+26.3 -16.3 5 +23 +23 комфорт 1007.2 1007.0
12 17.05 В 1 30 км 9/9 1500 м
[]
+24.1 -10.7 9 +21 +21 комфорт 1006.5 1041.0
15 17.05 В 1 30 км н/о +19.7 -9.5 13 +20 +20 1006.3 1006.0
18 17.05 В 2 30 км н/о +18.0 -9.9 14 +19 +19 1005.8 902.5 +26.3
21 17.05 Ю 4 30 км ?/? +20.9 +0.2 25 +21 +21 комфорт 1005.5 1006.0
00 18.05 Ю 2 10 км слабый ливневой дождь 10/10 1500 м
[]
+14.3 +10.9 80 +14 +14 1010.5 906.0 3
03 18.05 В 5 19 км слабый ливневой дождь 10/10 1500 м
[]
+13.3 +10.5 83 +11 +11 1012.0 1012.0
06 18.05 ЮВ 2 30 км слабый ливневой дождь 10/10 1500 м
[]
+13.4 +9.8 79 +13 +13 1011.8 905.9 +13.1 5
09 18.05 Ю 2 30 км 9/9 1500 м
[]
+14.8 +9.6 71 +15 +15 1009.6 1010.0
12 18.05 В 3 30 км 1/1 1500 м
[]
+15.3 +10.1 71 +15 +15 1011.8 905.6
15 18.05 ЮВ 1 30 км ?/? +12.1 +9.8 86 +12 +12 1013.4 870.4
18 18.05 В 1 27 км н/о +10.1 +9.0 93 +10 +10 1013.0 905.6 +21.5
21 18.05 ЮВ 2 3600 м дымка н/о +9.3 +8.5 95 +7 +7 1012.1 1012.0
00 19.05 В 2 17 км 9/9
[]
+10.5 +9.6 94 +9 +9 1012.4 1047.3
03 19.05 Ю 2 30 км 6/6
[]
+17.3 +10.4 64 +18 +24 1011.0 1011.0
06 19.05 З 3 30 км ясно +23.0 +7.9 38 +24 +40 комфорт 1008.1 902.9 +8.5
09 19.05 Ю 2 30 км ясно +27.0 +4.1 23 +26 +34 жарко 1004.7 865.9
12 19.05 Ю 2 30 км 9/9
[]
+26.3 +2.9 22 +25 +25 комфорт 1003.9 899.8
15 19.05 Ю 1 30 км н/о +22.1 +4.7 32 +22 +22 комфорт 1003.5 1004.0
18 19.05 СЗ 2 30 км н/о +19.7 +5.0 38 +21 +21 комфорт 1003.6 1037.8 +27.6
21 19.05 З 1 30 км ?/? +17.2 -1.5 28 +18 +18 1003.1 1003.0
00 20.05 С 1 30 км 4/4
[]
+16.7 -1.4 29 +18 +20 1004.8 901.6
03 20.05 С 2 30 км 4/4
[]
+25.4 -2.2 16 +23 +32 комфорт 1004.2 1004.0
06 20.05 З 1 30 км 9/9
[]
+29.6 -2.8 12 +26 +29 жарко 1002.4 900.5 +15.7
09 20.05 СЗ 5 30 км 9/9 1500 м
[]
+28.2 -6.3 10 +25 +25 комфорт 1002.7 1003.0
12 20.05 С 5 30 км 9/9 1500 м
[]
+24.7 -5.5 13 +22 +22 комфорт 1005.0 901.5

 

Местоположение метеостанции Ejin Qi (Китай): широта 41.95 долгота 101.06 высота над уровнем моря 941 м.

В архиве по умолчанию представлена погода в Ejin Qi за последнюю неделю. Архивные данные за месяц целиком и за предыдущие месяцы, начиная с января 2011 года, Вы можете получить, выбрав интересующий диапазон дат из раскрывающегося списка и нажав кнопку "Ввод!".


*Определитесь, кто Вы:
робот инопланетянин человек

Внимание! Время в таблицах - всемирное. Для получения местного времени необходимо прибавить поправку, которая в Ejin Qi равна 8 ч.

Смотрите также архив погоды в соседних городах и на ближайших метеорологических станциях:

Погода в Guaizihu (Китай) (126 км)
Погода в Shine Usa (Монголия) (127 км)
Погода в Bogd (Монголия) (313 км)
Погода в Bayan Mod (Китай) (317 км)
Погода в Jiuquan (Китай) (325 км)
Погода в Dalanzadgad (Монголия) (328 км)
Погода в Mazong Shan (Китай) (334 км)
Погода в Zhangye (Китай) (340 км)
Погода в Amarbuyantayn (Монголия) (353 км)
Погода в Yumen Zhen (Китай) (386 км)

Пояснения к столбцам:

Ветер - указаны скорость ветра в м/с - средняя за 10 мин, порывы в срок и между сроками (в фигурных скобках) и направление, откуда дует ветер: С - северный, СВ - северо-восточный, В - восточный, ЮВ - юго-восточный, Ю - южный, ЮЗ - юго-западный, З - западный, СЗ - северо-западный.
Видимость - горизонтальная дальность видимости в метрах или километрах. При видимости от 1 до 10 км при отсутствии осадков обычно наблюдается дымка, при ухудшении видимости до 1 км и менее - туман. В сухую погоду видимость может ухудшаться дымом, пылью или мглою.
Явления - указаны атмосферные явления, наблюдавшиеся в срок или в последний час перед сроком; фигурными скобками обозначены явления, наблюдавшиеся между сроками (за 1-3 часа до срока); квадратными скобками обозначены град или гололедные отложения с указанием их диаметра в мм.
Облачность - указаны через наклонную черту общая и нижняя облачность в баллах и высота нижней границы облаков в метрах; квадратными скобками обозначены формы облаков: Ci - перистые, Cs - перисто-слоистые, Cc - перисто-кучевые, Ac - высококучевые, As - высокослоистые, Sc - слоисто-кучевые, Ns - слоисто-дождевые, Cu - кучевые, Cb - кучево-дождевые. Подробнее классификацию облаков см. в Атласе облаков (PDF).
T - Температура воздуха - температура, измеренная на высоте 2 м над землей.
Td - Температура точки росы - температура, при понижении до которой содержащийся в воздухе водяной пар достигнет насыщения.
f - Относительная влажность воздуха - влажноcть воздуха, измеренная на высоте 2 м над землей.
Te - Эффективная температура - температура, которую ощущает одетый по сезону человек в тени. Характеристика душности погоды. При расчете учитывается влияние влажности воздуха и скорости ветра на теплоощущения человека.
Tes - Эффективная температура на солнце - температура, которую ощущает человек, с поправкой на солнечный нагрев. Характеристика знойности погоды. Зависит от высоты солнца над горизонтом, облачности и скорости ветра. Ночью, в пасмурную погоду, а также при ветре 12 м/с и более поправка равна нулю.
P - Атмосферное давление - приведенное к уровню моря атмосферное давление.
Po - Атмосферное давление - измеренное на уровне метеостанции атмосферное давление.
Tmin - Минимальная температура - минимум температуры воздуха на высоте 2 м над землей.
Tmax - Максимальная температура - максимум температуры воздуха на высоте 2 м над землей.
R - Количество осадков - Количество выпавших осадков за период времени, мм. При наведении курсора мыши на число - период времени, за который выпало указанное количество осадков.
R24 - Количество осадков - Количество выпавших осадков за 24 часа, мм.
S - Снежный покров - Высота снежного покрова, см. При наведении курсора мыши на число - состояние снежного покрова и степень покрытия местности в баллах.